Regional Weather Roundup
Issued by NWS New Orleans/Baton Rouge, LA

Home | Current Version | Previous Version | Text Only | Print | Product List | Glossary On
Versions: 1 2 3 4 5 6 7 8 9 10 11 12 13 14 15 16 17 18 19 20 21 22 23 24 25 26 27
000
ASUS44 KLIX 231506
RWRLIX
NEW ORLEANS REGIONAL WEATHER ROUNDUP
NATIONAL WEATHER SERVICE NEW ORLEANS LA
1000 AM CDT MON APR 23 2018

NOTE: "FAIR" INDICATES FEW OR NO CLOUDS BELOW 12,000 FEET WITH NO
      SIGNIFICANT WEATHER AND/OR OBSTRUCTIONS TO VISIBILITY.
      SKY/WX - SKY CONDITION AND SIGNIFICANT WEATHER.
      TMP - AIR TEMPERATURE.     DP    - DEWPOINT TEMPERATURE.
      RH  - RELATIVE HUMIDITY.   PRES  - PRESSURE.
      HI  - HEAT INDEX.          WCI   - WIND CHILL INDEX.

*  THESE STATIONS ARE NOT NWS OR FAA STATIONS AND ARE NOT UNDER
   NWS QUALITY CONTROL.

LAZ038-040-048-061>063-065>067-069-231600-
SOUTHEAST LOUISIANA

CITY           SKY/WX    TMP DP  RH WIND       PRES   REMARKS
N.O. INTL ARPT FAIR      65  53  65 W10       30.02F
N.O. LAKEFRONT FAIR      64  52  64 W14       30.02S
N.O. DOWNTOWN* FAIR      66  49  54 NW8       30.03S
RESERVE*       FAIR      69  51  53 NW10G18   30.03R
SLIDELL        FAIR      64  49  57 NW8       30.01S
BATON ROUGE    PTSUNNY   62  51  67 W15       30.02R
BOOTHVILLE     FAIR      66  52  60 NW10      30.04S
BELLE CHASSE   FAIR      65  52  62 VRB7      30.02S
BOGALUSA*      CLOUDY    61  50  67 W8        30.01S
GALLIANO*      FAIR      65  49  54 W10G18    30.04S
NEW ROADS*     CLOUDY    58  50  74 W9        30.04R
GONZALES*      FAIR      64  51  63 W7        30.02S
HAMMOND*       PTSUNNY   63  52  67 W7        30.01F
HOUMA*         MOSUNNY   66  52  59 W7        30.03S
PORT FOURCHON* SUNNY     66  50  55 W9        30.05S

$$

MSZ070-080>082-231600-
SOUTHERN MISSISSIPPI

CITY           SKY/WX    TMP DP  RH WIND       PRES   REMARKS
MCCOMB         CLOUDY    57  50  77 VRB6      30.00R
GULFPORT       FAIR      65  50  58 NW13      29.99F
BILOXI         FAIR      66  52  62 W3        29.99F
PASCAGOULA     FAIR      66  49  54 NW6       29.99R
STENNIS ARPT*  MOSUNNY   63  50  63 NW8       30.01S

$$

COASTAL OBSERVATIONS
LAKE AND NEARSHORE STATIONS

STATION/POSITION TIME  SKY/WX   TEMP    WIND        PRES    WAVE
                                AIR SEA DIR/SP/G            HT/PER
                 (UTC)          (F)     (DEG/KT/KT) (MB)    (FT/S)
WAVELAND YACHT   1442            62 69  310/  9/ 13 1016.2
GRAND ISLE       1418            63 71  320/  9/ 11 1017.3
SOUTHWEST PASS   1448            66 59  330/ 13/ 15 1017.8
NEW CANAL        1448            63 68  280/  6/ 10 1016.5
SHELL BEACH      1442            63 72  290/ 12/ 13 1016.5

OFFSHORE STATIONS

STATION/POSITION TIME  SKY/WX   TEMP    WIND        PRES    WAVE
                                AIR SEA DIR/SP/G            HT/PER
                 (UTC)          (F)     (DEG/KT/KT) (MB)    (FT/S)
64 S DAUPHIN ISL 1450               72  300/ 14/ 17 1016.6    4/ 5

$$





USA.gov is the U.S. government's official web portal to all federal, state and local government web resources and services.